Simultaneous Nadir Overpasses (SNOs) Predictions

Prediction of SNOs between AQUA and GOES-15 Satellite Orbit:

Table of predicted SNOs for the next 14.0 days since TLE Epoch: 3/6/2020
Index Date Time (AQUA) AQUA Lat,Lon GOES-15 Lat,Lon Distance(km) Time Diff (sec)
1 03/08/2020 10:01:26 -0.74,-126.52 -0.34,-128.39 213.14 80
2 03/08/2020 22:22:48 -0.39,-131.70 0.33,-128.40 375.27 80
3 03/10/2020 22:10:36 0.26,-128.74 0.33,-128.38 40.68 80
4 03/12/2020 21:58:23 0.86,-125.77 0.33,-128.36 293.54 80
5 03/13/2020 10:19:39 0.22,-130.93 -0.33,-128.34 295.13 80
6 03/15/2020 10:07:26 -0.38,-127.96 -0.33,-128.30 38.41 80
7 03/17/2020 09:55:14 -1.05,-125.01 -0.32,-128.27 371.45 80
8 03/17/2020 22:16:37 -0.07,-130.19 0.31,-128.27 217.76 80
9 03/19/2020 22:04:24 0.55,-127.22 0.31,-128.23 115.22 80
10 03/20/2020 10:25:39 0.60,-132.37 -0.29,-128.21 473.09 80




NCC Satellite Simultaneous Nadir Overpasses (SNOs) Prediction Service
